TimeCST,TemperatureF,Dew PointF,Humidity,Sea Level PressureIn,VisibilityMPH,Wind Direction,Wind SpeedMPH,Gust SpeedMPH,PrecipitationIn,Events,Conditions,WindDirDegrees,DateUTC
12:15 AM,43.7,40.3,88,30.10,10.0,Calm,Calm,-,N/A,,Clear,0,2013-02-04 06:15:00
12:35 AM,44.1,40.8,88,30.09,10.0,Calm,Calm,-,N/A,,Clear,0,2013-02-04 06:35:00
12:55 AM,44.2,40.6,87,30.09,10.0,Calm,Calm,-,N/A,,Clear,0,2013-02-04 06:55:00
1:15 AM,44.6,40.5,85,30.09,10.0,Calm,Calm,-,N/A,,Clear,0,2013-02-04 07:15:00
1:55 AM,43.3,39.4,86,30.08,10.0,Calm,Calm,-,N/A,,Clear,0,2013-02-04 07:55:00
2:15 AM,43.3,41.2,92,30.06,10.0,Calm,Calm,-,N/A,,Clear,0,2013-02-04 08:15:00
2:35 AM,43.7,41.9,93,30.05,10.0,Calm,Calm,-,N/A,,Clear,0,2013-02-04 08:35:00
2:55 AM,43.7,41.5,92,30.04,10.0,Calm,Calm,-,N/A,,Clear,0,2013-02-04 08:55:00
3:15 AM,43.7,41.9,93,30.03,10.0,Calm,Calm,-,N/A,,Clear,0,2013-02-04 09:15:00
5:15 AM,42.6,40.5,92,30.03,10.0,Calm,Calm,-,N/A,,Clear,0,2013-02-04 11:15:00
5:35 AM,42.1,40.1,93,30.04,10.0,Calm,Calm,-,N/A,,Clear,0,2013-02-04 11:35:00
5:55 AM,42.3,40.1,92,30.04,10.0,Calm,Calm,-,N/A,,Clear,0,2013-02-04 11:55:00
6:15 AM,42.6,40.5,92,30.04,10.0,Calm,Calm,-,N/A,,Clear,0,2013-02-04 12:15:00
6:35 AM,43.3,41.0,91,30.04,10.0,Calm,Calm,-,N/A,,Clear,0,2013-02-04 12:35:00
6:55 AM,42.8,40.6,92,30.04,10.0,Calm,Calm,-,N/A,,Clear,0,2013-02-04 12:55:00
7:15 AM,42.8,40.5,91,30.04,10.0,Calm,Calm,-,N/A,,Clear,0,2013-02-04 13:15:00
7:55 AM,44.1,42.1,93,30.05,10.0,Calm,Calm,-,N/A,,Clear,0,2013-02-04 13:55:00
8:15 AM,46.6,43.0,87,30.04,10.0,Calm,Calm,-,N/A,,Scattered Clouds,0,2013-02-04 14:15:00
8:55 AM,49.8,44.2,81,30.04,10.0,SE,6.9,-,N/A,,Scattered Clouds,140,2013-02-04 14:55:00
9:15 AM,50.9,43.3,75,30.05,10.0,SE,5.8,-,N/A,,Scattered Clouds,140,2013-02-04 15:15:00
9:35 AM,53.4,43.3,69,30.05,10.0,SE,4.6,-,N/A,,Mostly Cloudy,130,2013-02-04 15:35:00
9:55 AM,54.3,44.4,69,30.05,10.0,SE,6.9,-,N/A,,Overcast,140,2013-02-04 15:55:00
10:15 AM,55.4,45.0,68,30.05,10.0,SE,5.8,-,N/A,,Overcast,140,2013-02-04 16:15:00
10:35 AM,55.2,45.7,70,30.05,10.0,SE,4.6,-,N/A,Rain,Light Rain,140,2013-02-04 16:35:00
10:55 AM,55.4,46.6,72,30.04,10.0,SE,3.5,-,N/A,,Overcast,140,2013-02-04 16:55:00
11:15 AM,55.4,47.8,76,30.03,10.0,SE,4.6,-,N/A,,Drizzle,130,2013-02-04 17:15:00
11:35 AM,55.4,48.2,77,30.03,10.0,SE,5.8,-,N/A,Rain,Rain,140,2013-02-04 17:35:00
11:55 AM,55.8,48.9,78,30.02,10.0,SE,4.6,-,N/A,Rain,Light Rain,140,2013-02-04 17:55:00
12:15 PM,56.7,49.8,78,30.01,10.0,SSE,5.8,-,N/A,Rain,Light Rain,150,2013-02-04 18:15:00
12:35 PM,57.2,50.4,78,29.99,10.0,SSE,3.5,-,N/A,Rain,Light Rain,150,2013-02-04 18:35:00
12:55 PM,57.7,50.7,77,29.98,10.0,SE,4.6,-,N/A,,Drizzle,140,2013-02-04 18:55:00
1:15 PM,58.1,51.8,80,29.96,10.0,East,4.6,-,N/A,,Overcast,90,2013-02-04 19:15:00
1:35 PM,58.5,52.0,79,29.96,10.0,Calm,Calm,-,N/A,Rain,Light Rain,0,2013-02-04 19:35:00
1:55 PM,59.4,52.7,79,29.96,10.0,Calm,Calm,-,N/A,,Drizzle,0,2013-02-04 19:55:00
2:15 PM,60.1,53.8,80,29.95,10.0,SE,3.5,-,N/A,Rain,Light Rain,140,2013-02-04 20:15:00
2:35 PM,60.1,54.0,80,29.94,10.0,SE,5.8,-,N/A,,Drizzle,140,2013-02-04 20:35:00
2:55 PM,59.5,53.8,81,29.94,10.0,SE,6.9,-,N/A,Rain,Light Rain,140,2013-02-04 20:55:00
3:15 PM,59.2,54.3,84,29.93,10.0,SSE,4.6,-,N/A,,Light Drizzle,150,2013-02-04 21:15:00
3:35 PM,59.4,54.7,84,29.93,10.0,SSE,3.5,-,N/A,Rain,Rain,160,2013-02-04 21:35:00
3:55 PM,58.1,55.0,90,29.93,7.0,SSE,4.6,-,0.01,,Drizzle,150,2013-02-04 21:55:00
4:15 PM,58.1,54.9,89,29.92,10.0,SE,4.6,-,N/A,,Overcast,130,2013-02-04 22:15:00
4:35 PM,58.3,54.7,88,29.92,10.0,SE,5.8,-,N/A,,Overcast,130,2013-02-04 22:35:00
4:55 PM,58.1,54.3,87,29.92,10.0,SE,6.9,-,N/A,,Overcast,130,2013-02-04 22:55:00
5:15 PM,57.4,53.8,88,29.91,10.0,SE,6.9,-,N/A,,Overcast,130,2013-02-04 23:15:00
5:35 PM,56.3,53.2,89,29.91,10.0,SE,5.8,-,N/A,,Overcast,140,2013-02-04 23:35:00
5:55 PM,55.9,52.7,89,29.91,10.0,SE,4.6,-,N/A,,Overcast,130,2013-02-04 23:55:00
6:15 PM,54.7,52.0,91,29.91,10.0,SE,3.5,-,N/A,,Scattered Clouds,130,2013-02-05 00:15:00
6:35 PM,54.0,51.6,92,29.91,10.0,SE,3.5,-,N/A,,Clear,140,2013-02-05 00:35:00
6:55 PM,53.6,51.4,92,29.92,10.0,Calm,Calm,-,N/A,,Scattered Clouds,0,2013-02-05 00:55:00
7:15 PM,52.5,50.9,94,29.93,10.0,SSE,3.5,-,N/A,,Clear,150,2013-02-05 01:15:00
7:35 PM,51.8,50.9,97,29.93,10.0,SSE,4.6,-,N/A,,Clear,150,2013-02-05 01:35:00
7:55 PM,52.7,51.3,95,29.92,10.0,SE,5.8,-,N/A,,Clear,140,2013-02-05 01:55:00
8:15 PM,52.9,51.3,94,29.93,10.0,SE,5.8,-,N/A,,Clear,140,2013-02-05 02:15:00
8:35 PM,52.2,50.9,95,29.93,10.0,Calm,Calm,-,N/A,,Clear,0,2013-02-05 02:35:00
8:55 PM,51.6,50.7,97,29.93,10.0,SE,3.5,-,N/A,,Clear,140,2013-02-05 02:55:00
9:15 PM,51.6,50.5,96,29.94,10.0,Calm,Calm,-,N/A,,Scattered Clouds,0,2013-02-05 03:15:00
9:35 PM,51.6,50.5,96,29.95,10.0,Calm,Calm,-,N/A,,Mostly Cloudy,0,2013-02-05 03:35:00
9:55 PM,52.7,51.3,95,29.95,10.0,Calm,Calm,-,N/A,,Overcast,0,2013-02-05 03:55:00
10:15 PM,52.9,51.3,94,29.95,10.0,Calm,Calm,-,N/A,,Overcast,0,2013-02-05 04:15:00
10:35 PM,52.0,50.9,96,29.95,10.0,Calm,Calm,-,N/A,,Overcast,0,2013-02-05 04:35:00
10:55 PM,52.2,50.7,95,29.94,10.0,SE,4.6,-,N/A,,Mostly Cloudy,130,2013-02-05 04:55:00
11:15 PM,51.8,50.2,94,29.94,10.0,Calm,Calm,-,N/A,,Scattered Clouds,0,2013-02-05 05:15:00
11:35 PM,51.3,50.0,95,29.94,10.0,Calm,Calm,-,N/A,,Scattered Clouds,0,2013-02-05 05:35:00
11:55 PM,51.1,49.8,95,29.94,10.0,Calm,Calm,-,N/A,,Mostly Cloudy,0,2013-02-05 05:55:00